Regional Weather Roundup
Issued by NWS Cleveland, OH

Home | Current Version | Previous Version | Graphics & Text | Print | Product List | Glossary On
Versions: 1 2 3 4 5 6 7 8 9 10 11 12 13 14 15 16 17 18 19 20 21 22 23 24 25 26 27 28 29 30 31 32 33 34 35 36 37 38 39 40 41 42 43 44 45 46 47 48 49 50
000
ASUS41 KCLE 212010
RWRCLE
OHIO REGIONAL WEATHER ROUNDUP
NATIONAL WEATHER SERVICE CLEVELAND, OH
300 PM EST SAT JAN 21 2017

NOTE: "FAIR" INDICATES FEW OR NO CLOUDS BELOW 12,000 FEET WITH NO
SIGNIFICANT WEATHER AND/OR OBSTRUCTIONS TO VISIBILITY.

OHZ001>008-015>018-024>027-034-035-043-044-212100-
   NORTHWEST OHIO

CITY           SKY/WX    TMP DP  RH WIND       PRES   REMARKS
DEFIANCE       CLOUDY    57  50  77 S7        29.59F
FINDLAY        CLOUDY    60  51  72 S13       29.60F
TOLEDO EXPRESS MOSUNNY   58  53  84 S8        29.59F
TOLEDO EXEC    CLOUDY    60  54  80 S6        29.61F
LIMA           CLOUDY    58  52  80 S9        29.61F
$$

OHZ009>014-019>023-028>033-038-089-212100-
   NORTHEAST OHIO

CITY           SKY/WX    TMP DP  RH WIND       PRES   REMARKS
CLE-HOPKINS    CLOUDY    61  50  67 S10       29.68R
CLE-LAKEFRONT  CLOUDY    63  51  65 S12       29.64S
CUY CO. ARPT   PTSUNNY   63  54  72 S14       29.66S
LORAIN-ELYRIA  PTSUNNY   60  50  69 S9        29.65S
ASHTABULA      MOSUNNY   60  52  74 S7        29.68S
AKRON-CANTON   CLOUDY    60  50  69 S8        29.68S
WOOSTER        CLOUDY    58  51  78 S10       29.68R
MANSFIELD      MOSUNNY   58  52  80 S14G21    29.67R
YOUNGSTOWN     CLOUDY    60  50  69 S8        29.69F
$$

OHZ042-051>053-060>062-070>072-077>081-212100-
  SOUTHWEST OHIO

CITY           SKY/WX    TMP DP  RH WIND       PRES   REMARKS
CINC-COVINGTON CLOUDY    62  54  74 S10       29.62F
CINC-LUNKEN    CLOUDY    62  54  74 SW3       29.63F
HAMILTON       CLOUDY    62  54  74 CALM      29.63F
DAYTON         CLOUDY    59  49  69 S9        29.63F
WRIGHT-PAT AFB CLOUDY    61  52  72 SE6       29.63F
DAYTON GENERAL CLOUDY    60  51  72 S8        29.62F
WILMINGTON     PTSUNNY   59  52  77 S8        29.64F
$$

OHZ036-037-039>041-045>050-054>059-063>069-073>076-082>088-212100-
  CENTRAL AND SOUTHEAST OHIO

CITY           SKY/WX    TMP DP  RH WIND       PRES   REMARKS
COLUMBUS       CLOUDY    61  51  70 S7        29.65F
OSU AIRPORT    PTSUNNY   59  53  80 SE9       29.65F
BOLTON FIELD   CLOUDY    57  54  88 S7        29.66F
RICKENBACK AFB   N/A     59  52  79 S7        29.65F
NEWARK         CLOUDY    62  51  67 S8        29.65F
MARION         PTSUNNY   58  51  78 S12       29.65S
LANCASTER      CLOUDY    63  50  62 S6        29.66F
ZANESVILLE     CLOUDY    63  51  65 VRB5      29.68F
NEW PHILLY     NOT AVBL
$$




USA.gov is the U.S. government's official web portal to all federal, state and local government web resources and services.